Back to catalog

STARLINK-31870

AliveCommunicationsVLEO
NORAD 59787·PAYLOAD·🇺🇸 United States

Launched May 18, 2024 from Cape Canaveral Space Force Station

Loading…

Next Passes (next 24 hours)

TLE

FreshSource: CelesTrak SupGP

Epoch: Sep 14, 2026, 22:52 UTC

1 59787C 24093F   26257.95326389  .00004593  00000+0  16635-3 0  2572
2 59787  43.0021 219.6560 0000851 245.9309 172.7077 15.27577917    16

Track STARLINK-31870 in real time with AllMySat

Download on the App Store